Regional Weather Roundup
Issued by NWS

Home | Current Version | Previous Version | Graphics & Text | Print | Product List | Glossary On
Versions: 1 2 3 4 5 6 7 8 9 10 11 12 13 14 15 16 17 18 19 20 21 22 23 24 25 26 27
000
ASUS45 KSLC 280110
RWRUT

UTAH REGIONAL WEATHER ROUNDUP
NATIONAL WEATHER SERVICE SALT LAKE CITY UT
600 PM MST MON FEB 27 2017

UTZ001>011-023>025-280200-

NORTHERN UTAH

CITY           SKY/WX    TMP DP  RH WIND       PRES   REMARKS
BRIGHAM CITY     N/A     32  20  62 NW13      29.79S WCI  22
HILL AFB       PTCLDY    30  17  59 W5        29.76R WCI  25
LOGAN          CLOUDY    27  22  81 N8        29.79R WCI  19
OGDEN          CLOUDY    31  19  61 NW5       29.76S WCI  26
SALT LAKE CITY CLOUDY    31  25  78 SE7       29.78S WCI  24
TOOELE VALLEY  CLOUDY    32  27  80 E5        29.79R WCI  27
WENDOVER       PTCLDY    36   7  30 NW13      29.77S WCI  27
HEBER CITY     CLOUDY    27  21  80 CALM      29.73S
WEST JORDAN    CLOUDY    34  28  78 W8        29.79R WCI  27

$$

UTZ011>015-024>027-280200-

CENTRAL/NORTHEAST UTAH

CITY           SKY/WX    TMP DP  RH WIND       PRES   REMARKS
PROVO AIRPORT  CLOUDY    29  27  92 SE8       29.81S WCI  21
MOAB/CANYONLAN CLOUDY    49  20  31 SW28G37   29.64R
DELTA          CLOUDY    28  27  93 NE12      29.80R VSB 3/4 WCI  18
PRICE          MOCLDY    32  21  64 W13       29.67R WCI  22
ROOSEVELT      CLOUDY    32  23  69 W17       29.70R WCI  21
VERNAL         CLOUDY    30  27  88 E6        29.68R WCI  24

$$

UTZ013>016-019>022-027-280200-

SOUTHERN UTAH

CITY           SKY/WX    TMP DP  RH WIND       PRES   REMARKS
BRYCE CANYON   CLOUDY    30  22  72 W16       29.72F WCI  19
CEDAR CITY     CLOUDY    36  28  73 SW10      29.72F WCI  28
MILFORD        MIX PCPN  32  28  85 N20       29.75R WCI  20
ST GEORGE      CLOUDY    51  37  58 S12       29.76S
HANKSVILLE     CLOUDY    48  19  32 SW16G25   29.69S
BLANDING       CLOUDY    38  33  81 S15G22    29.84F WCI  30

$$

REGIONAL REPORTS     COLORADO/ARIZONA

CITY           SKY/WX    TMP DP  RH WIND       PRES   REMARKS
CRAIG, CO      HVY SNOW  24  20  84 W5        29.69R VSB 1/4 WCI  18
GRAND JUNCTION CLOUDY    48  18  30 SW23G37   29.66R
RIFLE, CO      CLOUDY    45  17  32 SW18      29.64R
MONTROSE, CO   CLOUDY    43  21  41 S12       29.74R
CORTEZ, CO     LGT RAIN  39  33  79 SW20      29.83R WCI  29
COLORADO CITY  LGT RAIN  41  37  87 CALM      29.81S
PAGE, AZ       CLOUDY    43  31  62 NW8       29.75S
GRAND CANYON   SNOW      32  32 100 SW13      29.83S VSB 1/4 WCI  22
KINGMAN, AZ    CLOUDY    47  43  86 S17       29.80F
FLAGSTAFF, AZ  SNOW      31  30  96 SW13      29.85S VSB 1/2 WCI  21

$$

REGIONAL REPORTS    NEVADA/IDAHO/WYOMING

CITY           SKY/WX    TMP DP  RH WIND       PRES   REMARKS
LAS VEGAS, NV  CLOUDY    56  34  43 SW9G17    29.71F
ELY, NY        CLOUDY    26  15  63 NW3       29.75R
ELKO, NV       CLOUDY    31  10  41 W14       29.76S WCI  21
POCATELLO, ID  PTCLDY    26  19  74 SW17      29.75R WCI  13
BURLEY, ID     MIX PCPN  31  17  56 W13G21    29.75R WCI  21
FORT BRIDGER,  CLOUDY    21  19  89 W23       29.70R FOG     WCI   5
EVANSTON, WY   LGT SNOW  19  14  81 W17       29.69R WCI   4
ROCK SPRINGS,  CLOUDY    22  14  71 SW21      29.64R WCI   6

$$




USA.gov is the U.S. government's official web portal to all federal, state and local government web resources and services.